WN8IZV Weather Reports


Display with metric or nautical units.
time (UTC)temp
F
wind
direction
speed
MPH
gust
MPH
rain 1hr
in
rain 24hr
in
rain mn
in
humidity
%
barometer
mb
20260506024547 52 268 0.0 2.0 0.00 0.11 0.11 69 1008.5
20260506023038 52 295 0.0 2.0 0.00 0.11 0.11 69 1008.5
20260506021535 52 271 0.0 2.0 0.00 0.11 0.11 70 1008.5
20260506020033 52 288 0.0 2.0 0.00 0.11 0.11 70 1008.4
20260506014535 52 288 0.0 0.0 0.00 0.17 0.11 70 1008.1
20260506013028 52 288 0.0 1.0 0.00 0.17 0.11 70 1008.0
20260506011525 53 299 0.0 1.0 0.00 0.17 0.11 70 1007.9
20260506010025 53 299 0.0 2.0 0.00 0.17 0.11 70 1008.0
20260506004520 53 226 0.0 1.0 0.00 0.17 0.11 71 1007.9
20260506003018 54 274 0.0 2.0 0.00 0.17 0.11 71 1007.9
20260506001517 54 266 1.0 4.0 0.00 0.17 0.11 71 1007.8
20260506000014 54 285 0.0 3.0 0.00 0.17 0.11 71 1007.2
20260505234510 54 259 0.0 2.0 0.00 0.22 0.11 71 1007.0
20260505233007 55 267 0.0 3.0 0.00 0.22 0.11 71 1006.8
20260505231506 55 263 1.0 6.0 0.00 0.22 0.11 72 1006.9
20260505230011 55 153 1.0 4.0 0.00 0.22 0.11 72 1006.9
20260505224500 55 264 0.0 3.0 0.00 0.22 0.11 72 1007.2
20260505223059 55 284 1.0 4.0 0.00 0.22 0.11 72 1007.2
20260505221555 55 265 0.0 4.0 0.00 0.22 0.11 72 1007.1
20260505220054 56 233 1.0 3.0 0.00 0.22 0.11 72 1007.2
20260505214551 56 276 1.0 3.0 0.00 0.22 0.11 72 1007.3
20260505213056 56 274 0.0 4.0 0.00 0.22 0.11 72 1007.1
20260505211551 56 276 1.0 3.0 0.00 0.22 0.11 72 1006.9
20260505210045 56 278 0.0 3.0 0.00 0.22 0.11 72 1007.0
20260505204542 56 260 0.0 3.0 0.00 0.22 0.11 72 1007.2
20260505203045 56 251 0.0 3.0 0.00 0.22 0.11 72 1007.2
20260505201539 56 199 1.0 2.0 0.00 0.22 0.11 73 1007.2
20260505200037 55 198 0.0 2.0 0.00 0.22 0.11 72 1007.1
20260505194535 54 215 1.0 4.0 0.00 0.22 0.11 72 1007.3
20260505193033 54 305 0.0 4.0 0.00 0.22 0.11 72 1007.5
20260505191534 54 179 0.0 3.0 0.00 0.22 0.11 73 1007.7
20260505190028 54 221 0.0 5.0 0.00 0.22 0.11 73 1007.5
20260505184526 54 223 0.0 3.0 0.00 0.22 0.11 73 1007.2
20260505183033 54 197 1.0 5.0 0.01 0.22 0.11 72 1007.0
20260505181522 53 274 1.0 6.0 0.01 0.22 0.11 72 1006.9
20260505180039 52 188 1.0 3.0 0.03 0.22 0.11 72 1007.0
20260505174515 52 238 0.0 1.0 0.04 0.22 0.11 72 1006.8
20260505173011 52 210 0.0 3.0 0.04 0.21 0.10 71 1006.9
20260505171509 53 226 0.0 3.0 0.04 0.21 0.10 71 1006.9
20260505170003 54 276 2.0 4.0 0.02 0.19 0.08 71 1007.1
20260505164559 56 274 0.0 4.0 0.01 0.18 0.07 71 1006.7
20260505163053 57 314 1.0 4.0 0.00 0.17 0.06 72 1006.7
20260505161553 58 288 1.0 4.0 0.00 0.17 0.06 72 1006.3
20260505153041 58 11 0.0 2.0 0.00 0.17 0.06 72 1005.9
20260505151537 58 23 1.0 4.0 0.00 0.17 0.06 72 1005.4
20260505130109 61 155 1.0 4.0 0.00 0.17 0.06 74 1003.3
20260505124511 61 153 1.0 4.0 0.00 0.17 0.06 74 1003.3
20260505123017 59 240 0.0 5.0 0.00 0.17 0.06 74 1003.5
20260505121505 58 229 0.0 3.0 0.00 0.17 0.06 74 1003.2
20260505120105 58 240 0.0 1.0 0.00 0.17 0.06 74 1003.3
20260505114601 58 245 0.0 2.0 0.00 0.17 0.06 74 1003.4
20260505113055 57 286 0.0 1.0 0.00 0.17 0.06 74 1002.6
20260505111549 57 143 0.0 3.0 0.00 0.17 0.06 73 1002.0
20260505101556 58 266 0.0 4.0 0.00 0.17 0.06 73 1001.0
20260505100055 58 257 1.0 4.0 0.00 0.17 0.06 73 1000.9
20260505094533 58 218 1.0 4.0 0.00 0.17 0.06 73 1000.9
20260505093029 58 241 1.0 5.0 0.00 0.17 0.06 73 1000.8
20260505091525 58 222 1.0 4.0 0.00 0.17 0.06 73 1000.8
20260505090023 58 269 1.0 5.0 0.00 0.17 0.06 73 1000.8
20260505084520 58 242 0.0 3.0 0.00 0.17 0.06 73 1000.8
20260505083021 58 191 0.0 3.0 0.00 0.17 0.06 72 1000.3
20260505081515 58 167 0.0 3.0 0.00 0.17 0.06 72 1000.4
20260505080012 58 256 0.0 3.0 0.00 0.17 0.06 72 1000.1
20260505074509 58 184 0.0 4.0 0.00 0.17 0.06 72 999.5
20260505073024 58 178 0.0 1.0 0.00 0.17 0.06 72 999.1
20260505071504 59 181 1.0 8.0 0.00 0.17 0.06 71 999.0
20260505070003 59 258 1.0 4.0 0.00 0.17 0.06 71 999.5
20260505064558 59 217 0.0 4.0 0.00 0.17 0.06 71 999.6
20260505063112 59 162 1.0 5.0 0.00 0.17 0.06 71 999.9
20260505061553 59 234 3.0 6.0 0.00 0.17 0.06 70 999.6
20260505060052 58 239 1.0 4.0 0.06 0.17 0.06 70 999.4
20260505054549 59 209 0.0 5.0 0.06 0.17 0.06 69 999.6
20260505053047 59 212 1.0 3.0 0.06 0.17 0.06 69 1000.1
20260505051542 61 49 1.0 9.0 0.06 0.17 0.06 69 1000.2
20260505041523 66 160 1.0 9.0 0.00 0.11 0.00 70 999.9
20260505040016 66 189 3.0 9.0 0.00 0.11 0.00 70 999.4
20260505034512 65 245 2.0 10.0 0.00 0.11 0.11 70 999.5
20260505033009 65 224 2.0 9.0 0.00 0.11 0.11 70 999.7
20260505031509 64 150 2.0 7.0 0.00 0.11 0.11 70 1000.0
20260505030004 64 158 1.0 7.0 0.00 0.11 0.11 70 1000.2